Broome, Australia

6:17 PM AWST on May 28, 2017 (GMT +0800)
Broome International

Weather History for YBRM - March, 2013

Change the Weather History Date:

Sunday, March 31, 2013

  Actual Average Record
Temperature  
Mean Temperature 87 °F -  
Max Temperature 95 °F 94 °F - ()
Min Temperature 79 °F 72 °F - ()
Cooling Degree Days 22    
Growing Degree Days 37 (Base 50)    
Moisture  
Dew Point 69 °F    
Average Humidity 54    
Maximum Humidity 70    
Minimum Humidity 30    
Precipitation  
Precipitation 0.00 in 0.02 in - ()
Sea Level Pressure  
Sea Level Pressure 29.77 in    
Wind  
Wind Speed 12 mph ()    
Max Wind Speed 18 mph    
Max Gust Speed -    
Visibility 6.9 miles    
Events      
T = Trace of Precipitation, MM = Missing Value Source: Averaged Metar Reports

Daily Weather History Graph

Daily Weather History Graph

Search for Another Location

Airport or City:

Trip Planner

Search our weather history database for the weather conditions in past years. The results will help you decide how hot, cold, wet, or windy it might be!

Date:

Astronomy

Mar. 31, 2013 Rise Set
Actual Time 5:57 AM AWST 5:53 PM AWST
Civil Twilight 5:35 AM AWST 6:14 PM AWST
Nautical Twilight 5:10 AM AWST 6:40 PM AWST
Astronomical Twilight 4:44 AM AWST 7:05 PM AWST
Moon 9:05 PM AWST (3/31) 9:29 AM AWST (3/31)
Length of Visible Light 12h 39m
Length of Day
11h 55m
Waning Gibbous, 82% of the Moon is Illuminated
Mar 31
Waning Gibbous
Apr 3
Last Quarter
Apr 10
New
Apr 18
First Quarter
Apr 26
Full

Hourly Weather History & Observations

Time (AWST) Temp. Heat Index Dew Point Humidity Pressure Visibility Wind Dir Wind Speed Gust Speed Precip Events Conditions
12:00 AM 86 °F - 68 °F 45% 29.79 in - SSE 15.0 mph - -  
12:00 AM 86.0 °F 89.4 °F 68.0 °F 55% 29.77 in 6.2 mi SSE 15.0 mph - N/A   Unknown
12:30 AM 86.0 °F 89.4 °F 68.0 °F 55% 29.77 in 6.2 mi SSE 15.0 mph - N/A   Unknown
1:00 AM 86.0 °F 89.4 °F 68.0 °F 55% 29.77 in 6.2 mi SSE 16.1 mph - N/A   Unknown
1:30 AM 84.2 °F 86.6 °F 66.2 °F 55% 29.77 in 6.2 mi SSE 16.1 mph - N/A   Unknown
2:00 AM 84 °F - 67 °F 47% 29.78 in - SSE 15.0 mph - -  
2:00 AM 84.2 °F 86.6 °F 66.2 °F 55% 29.77 in 6.2 mi SSE 15.0 mph - N/A   Unknown
2:30 AM 84.2 °F 86.6 °F 66.2 °F 55% 29.77 in 6.2 mi SE 17.3 mph - N/A   Unknown
3:00 AM 83 °F - 66 °F 47% 29.78 in - SE 15.0 mph - -  
3:00 AM 82.4 °F 84.6 °F 66.2 °F 58% 29.77 in 6.2 mi SE 15.0 mph - N/A   Unknown
3:30 AM 82.4 °F 84.6 °F 66.2 °F 58% 29.77 in 6.2 mi SE 18.4 mph - N/A   Unknown
4:00 AM 82.4 °F 83.9 °F 64.4 °F 54% 29.77 in 6.2 mi SE 15.0 mph - N/A   Unknown
4:30 AM 80.6 °F 82.7 °F 66.2 °F 61% 29.77 in 6.2 mi SE 12.7 mph - N/A   Unknown
5:00 AM 81 °F - 65 °F 50% 29.79 in - SE 15.0 mph - -  
5:00 AM 80.6 °F 82.7 °F 66.2 °F 61% 29.77 in 6.2 mi SE 15.0 mph - N/A   Mostly Cloudy
5:30 AM 80.6 °F 82.3 °F 64.4 °F 58% 29.77 in - SE 13.8 mph - N/A   Clear
6:00 AM 79 °F - 65 °F 54% 29.81 in 19 mi SE 13.8 mph - -   Partly Cloudy
6:00 AM 78.8 °F - 64.4 °F 61% 29.80 in - SE 13.8 mph - N/A   Clear
6:30 AM 80.6 °F 82.7 °F 66.2 °F 61% 29.80 in - SE 11.5 mph - N/A   Clear
7:00 AM 80.6 °F 82.7 °F 66.2 °F 61% 29.80 in - SE 12.7 mph - N/A   Clear
7:30 AM 80.6 °F 82.7 °F 66.2 °F 61% 29.83 in - SE 13.8 mph - N/A   Clear
8:00 AM 82 °F - 66 °F 48% 29.83 in - ESE 16.1 mph - -  
8:00 AM 82.4 °F 84.6 °F 66.2 °F 58% 29.83 in - ESE 16.1 mph - N/A   Clear
8:30 AM 82.4 °F 84.6 °F 66.2 °F 58% 29.83 in - ESE 16.1 mph - N/A   Clear
9:00 AM 84 °F - 65 °F 44% 29.83 in 25 mi ESE 15.0 mph - -   Partly Cloudy
9:00 AM 84.2 °F 86.6 °F 66.2 °F 55% 29.83 in - ESE 15.0 mph - N/A   Clear
9:30 AM 86.0 °F 88.2 °F 66.2 °F 51% 29.83 in - ESE 15.0 mph - N/A   Clear
10:00 AM 87.8 °F 90.4 °F 66.2 °F 49% 29.83 in - ESE 15.0 mph - N/A   Clear
10:30 AM 89.6 °F 92.2 °F 66.2 °F 46% 29.80 in 6.2 mi ESE 13.8 mph - N/A   Unknown
11:00 AM 90 °F - 67 °F 37% 29.80 in - ESE 13.8 mph - -  
11:00 AM 89.6 °F 93.4 °F 68.0 °F 49% 29.80 in - ESE 13.8 mph - N/A   Clear
11:30 AM 89.6 °F 93.4 °F 68.0 °F 49% 29.77 in - ESE 12.7 mph - N/A   Clear
12:00 PM 90 °F - 67 °F 36% 29.77 in 25 mi SE 11.5 mph - -   Partly Cloudy
12:00 PM 89.6 °F 92.2 °F 66.2 °F 46% 29.77 in - SE 11.5 mph - N/A   Clear
12:30 PM 91.4 °F 95.4 °F 68.0 °F 46% 29.74 in - SSE 9.2 mph - N/A   Clear
1:00 PM 93.2 °F 97.7 °F 68.0 °F 44% 29.74 in - SSE 9.2 mph - N/A   Clear
1:30 PM 93.2 °F 97.7 °F 68.0 °F 44% 29.74 in - SSE 8.1 mph - N/A   Clear
2:00 PM 93 °F - 69 °F 35% 29.73 in - SE 8.1 mph - -  
2:00 PM 93.2 °F 97.7 °F 68.0 °F 44% 29.71 in - SE 8.1 mph - N/A   Clear
2:30 PM 93.2 °F 96.2 °F 66.2 °F 41% 29.71 in - SSE 6.9 mph - N/A   Clear
3:00 PM 94 °F - 66 °F 30% 29.73 in 25 mi South 8.1 mph - -   Partly Cloudy
3:00 PM 95.0 °F 98.5 °F 66.2 °F 39% 29.71 in - South 8.1 mph - N/A   Clear
3:30 PM 95.0 °F 98.5 °F 66.2 °F 39% 29.71 in - South 5.8 mph - N/A   Clear
4:00 PM 95.0 °F 101.3 °F 69.8 °F 44% 29.71 in - South 6.9 mph - N/A   Clear
4:30 PM 93.2 °F 97.7 °F 68.0 °F 44% 29.71 in - SW 9.2 mph - N/A   Clear
5:00 PM 92 °F - 73 °F 44% 29.74 in - WSW 10.4 mph - -  
5:00 PM 91.4 °F 100.1 °F 73.4 °F 55% 29.74 in - WSW 10.4 mph - N/A   Clear
5:30 PM 89.6 °F 98.2 °F 73.4 °F 59% 29.74 in - SW 12.7 mph - N/A   Clear
6:00 PM 88 °F - 74 °F 56% 29.75 in 25 mi SW 12.7 mph - -   Scattered Clouds
6:00 PM 87.8 °F 97.6 °F 75.2 °F 66% 29.74 in - SW 12.7 mph - N/A   Clear
6:30 PM 87.8 °F 95.6 °F 73.4 °F 62% 29.77 in - SW 11.5 mph - N/A   Clear
7:00 PM 87.8 °F 97.6 °F 75.2 °F 66% 29.77 in - SW 11.5 mph - N/A   Clear
7:30 PM 87.8 °F 97.6 °F 75.2 °F 66% 29.77 in - SW 11.5 mph - N/A   Clear
8:00 PM 87 °F - 75 °F 60% 29.78 in - SW 11.5 mph - -  
8:00 PM 87.8 °F 97.6 °F 75.2 °F 66% 29.77 in - SW 11.5 mph - N/A   Clear
8:30 PM 87.8 °F 97.6 °F 75.2 °F 66% 29.77 in - SW 11.5 mph - N/A   Clear
9:00 PM 87 °F - 76 °F 64% 29.79 in 25 mi SW 10.4 mph - -   Partly Cloudy
9:00 PM 87.8 °F 99.7 °F 77.0 °F 70% 29.77 in - SW 10.4 mph - N/A   Clear
9:30 PM 87.8 °F 99.7 °F 77.0 °F 70% 29.80 in 6.2 mi SW 9.2 mph - N/A   Unknown
10:00 PM 87.8 °F 99.7 °F 77.0 °F 70% 29.80 in 6.2 mi SW 9.2 mph - N/A   Unknown
10:30 PM 87.8 °F 99.7 °F 77.0 °F 70% 29.80 in 6.2 mi SW 8.1 mph - N/A   Unknown
11:00 PM 87 °F - 76 °F 63% 29.80 in - SSW 8.1 mph - -  
11:00 PM 87.8 °F 99.7 °F 77.0 °F 70% 29.80 in 6.2 mi SSW 8.1 mph - N/A   Unknown
11:30 PM 87.8 °F 95.6 °F 73.4 °F 62% 29.80 in 6.2 mi SSW 6.9 mph - N/A   Unknown